This demonstration page uses our WeatherBlox Daily Observations layout. Learn more.

Left ArrowRight Arrow

38.88101, -77.10428

Hourly Observations for December 28, 2019

Temp ( °F °C ) Dew Point ( °F °C ) Humidity (%) Winds ( mph kmh ) Pressure ( in mb ) Visibility ( mi km ) Precip ( " mm )
12:52 am 00:52 Cloudy 43 6.1 42 5.6 97 97 S 5 7 30.19 1022 7 11.26538 0 0
1:52 am 01:52 Cloudy 44 6.7 43 6.1 96 96 Calm 30.19 1022 7 11.26538 0 0
2:52 am 02:52 Partly Cloudy with Mist and Fog 42 5.6 41 5 96 96 S 3 6 30.2 1023 6 9.65604 0 0
3:52 am 03:52 Partly Cloudy with Fog 40 4.4 40 4.4 100 100 Calm 30.2 1023 9 14.48406 0 0
4:52 am 04:52 Partly Cloudy 40 4.4 39 3.9 97 97 Calm 30.21 1023 9 14.48406 0 0
5:52 am 05:52 Mostly Cloudy 40 4.4 40 4.4 100 100 S 5 7 30.21 1023 7 11.26538 0 0
6:52 am 06:52 Mostly Cloudy with Mist and Fog 39 3.9 38 3.3 96 96 Calm 30.23 1024 6 9.65604 0 0
7:52 am 07:52 Mostly Cloudy 40 4.4 39 3.9 97 97 Calm 30.25 1024 7 11.26538 0 0
8:52 am 08:52 Mostly Cloudy with Mist and Fog 42 5.6 42 5.6 100 100 Calm 30.27 1025 5 8.0467 0 0
9:52 am 09:52 Mostly Cloudy with Mist and Fog 47 8.3 43 6.1 86 86 Calm 30.27 1025 6 9.65604 0 0
10:52 am 10:52 Mostly Cloudy 55 12.8 46 7.8 72 72 NE 5 7 30.27 1025 10 16.0934 0 0
11:52 am 11:52 Mostly Cloudy 64 17.8 47 8.3 54 54 N 14 22 30.25 1024 10 16.0934 0 0
12:52 pm 12:52 Mostly Cloudy 67 19.4 46 7.8 47 47 NW 10 17 30.22 1023 10 16.0934 0 0
1:52 pm 13:52 Mostly Cloudy 66 18.9 45 7.2 47 47 N 9 15 30.2 1023 10 16.0934 0 0
2:52 pm 14:52 Mostly Cloudy 65 18.3 45 7.2 49 49 N 7 11 30.2 1023 10 16.0934 0 0
3:52 pm 15:52 Mostly Cloudy 60 15.6 44 6.7 56 56 N 6 9 30.21 1023 10 16.0934 0 0
4:52 pm 16:52 Mostly Cloudy 59 15 43 6.1 56 56 E 5 7 30.22 1023 10 16.0934 0 0
5:52 pm 17:52 Mostly Cloudy 56 13.3 43 6.1 62 62 E 3 6 30.22 1023 10 16.0934 0 0
6:52 pm 18:52 Partly Cloudy 53 11.7 42 5.6 66 66 Calm 30.21 1023 10 16.0934 0 0
7:52 pm 19:52 Mostly Cloudy 54 12.2 44 6.7 69 69 SSW 3 6 30.22 1023 10 16.0934 0 0
8:52 pm 20:52 Partly Cloudy 49 9.4 42 5.6 77 77 Calm 30.22 1024 10 16.0934 0 0
9:52 pm 21:52 Mostly Clear 49 9.4 43 6.1 80 80 S 3 6 30.25 1024 10 16.0934 0 0
10:52 pm 22:52 Mostly Cloudy 48 8.9 42 5.6 80 80 NNE 5 7 30.24 1024 10 16.0934 0 0
11:52 pm 23:52 Mostly Cloudy 46 7.8 42 5.6 86 86 NE 6 9 30.22 1024 8 12.87472 0 0

Powered by AerisWeather